Home > Weather > São Luis > Past weeks

Flag for Brazil Past Weather in São Luis, Maranhão, Brazil — Yesterday and Last 2 Weeks

Now
77 °F

Clear.


Feels Like: 78 °F
Forecast: 77 / 88 °F
Wind: 5 mph from East

Location: Sao Luiz Aeroporto

Current Time: Jul 28, 2016 at 5:54:50 AM

Latest Report: Jul 28, 2016 at 5:00 AM


Visibility: 10 mi

Pressure: 29.86 "Hg

Humidity: 83%

Dew Point: 72 °F

Location of São LuisLocation

Past Weather in São Luis — Graph

°F

São Luis Temperature Yesterday

Maximum temperature yesterday: 88 °F (at 1:00 PM)
Minimum temperature yesterday: 77 °F (at 12:00 AM)
Average temperature yesterday: 81 °F

High & Low Weather Summary for the Past Weeks

 TemperatureHumidityPressure
High90 °F (Jul 13, 2:00 PM)89% (Jul 19, 11:00 PM)29.98 "Hg (Jul 19, 11:00 PM)
Low75 °F (Jul 19, 3:00 PM)43% (Jul 23, 3:00 PM)29.77 "Hg (Jul 15, 3:00 PM)
Average81 °F74%29.91 "Hg
* Reported Jul 13 5:00 AM — Jul 28 5:00 AM, São Luis, Weather by CustomWeather, © 2016

Note: Actual official high and low records may vary slightly from our data, if they occured in-between our weather recording intervals... More about our weather records

Advertising

São Luis Weather History for the Previous 24 Hours

Scroll right to see more
 ConditionsComfort  
Time TempWeatherWind HumidityBarometerVisibility
5:00 AM
Thu, Jul 28
77 °FClear.5 mph83%29.86 "Hg10 mi
4:00 AM77 °FClear.3 mph83%29.86 "Hg10 mi
3:00 AM77 °FClear.5 mph83%29.86 "Hg10 mi
2:00 AM77 °FClear.5 mph83%29.89 "Hg10 mi
1:00 AM77 °FClear.5 mph83%29.89 "Hg10 mi
12:00 AM79 °FClear.3 mph79%29.92 "Hg10 mi
11:00 PM
Wed, Jul 27
79 °FClear.6 mph79%29.92 "Hg10 mi
10:00 PM79 °FClear.5 mph79%29.92 "Hg10 mi
9:00 PM79 °FClear.8 mph74%29.92 "Hg10 mi
8:00 PM81 °FPassing clouds.7 mph70%29.92 "HgN/A
7:00 PM81 °FClear.8 mph70%29.89 "Hg10 mi
6:00 PM82 °FPassing clouds.13 mph70%29.89 "HgN/A
5:00 PM84 °FPassing clouds.9 mph62%29.89 "HgN/A
4:00 PM86 °FScattered clouds.14 mph59%29.86 "HgN/A
3:00 PM86 °FScattered clouds.12 mph62%29.89 "HgN/A
2:00 PM88 °FScattered clouds.6 mph49%29.89 "HgN/A
1:00 PM88 °FScattered clouds.10 mph49%29.92 "HgN/A
12:00 PM86 °FScattered clouds.9 mph55%29.95 "HgN/A
11:00 AM86 °FScattered clouds.9 mph59%29.98 "HgN/A
10:00 AM84 °FScattered clouds.12 mph66%29.98 "HgN/A
9:00 AM82 °FScattered clouds.12 mph70%29.98 "HgN/A
8:00 AM79 °FScattered clouds.9 mph84%29.95 "HgN/A
7:00 AM77 °FSunny.3 mph83%29.95 "Hg10 mi
6:00 AM77 °FClear.5 mph83%29.92 "Hg10 mi
5:00 AM77 °FClear.6 mph83%29.92 "Hg10 mi
Weather by CustomWeather, © 2016

See weather overviewHow to use our weather pages